-2026-09-03 (木) 23:04:52 - [[120 mm CN120-26 F1 cannon]]
-2026-09-03 (木) 21:09:58 - [[Leclerc S2]]
-2026-09-01 (火) 22:59:30 - [[ISU-122/コメント]]
-2026-09-01 (火) 19:26:56 - [[Fw 190 A-5/U2/コメント]]
-2026-09-01 (火) 08:57:04 - [[Ho 229 V3]]
-2026-08-31 (月) 14:16:25 - [[FR-1]]
-2026-08-26 (水) 21:59:01 - [[Tiger II (P)]]
-2026-08-23 (日) 19:44:35 - [[KV-2 (ZiS-6)]]
-2026-08-21 (金) 18:41:33 - [[N1K1]]
-2026-08-21 (金) 18:35:45 - [[BMPT-72]]
-2026-08-21 (金) 09:32:20 - [[Type 87 RCV (P)/コメント]]
-2026-08-20 (木) 13:06:40 - [[Type K-class/コメント]]
-2026-08-20 (木) 08:32:47 - [[Pr. 1239]]
-2026-08-20 (木) 08:15:45 - [[F-89D]]
-2026-08-20 (木) 08:13:24 - [[2S19M2]]
-2026-08-20 (木) 08:02:58 - [[Yak-1 Litvyak]]
-2026-08-18 (火) 07:45:57 - [[152 mm LP-83 cannon]]
-2026-08-18 (火) 06:55:37 - [[122 mm D-25S cannon (early)]]
-2026-08-15 (土) 10:25:52 - [[105 mm M68A1 cannon (late)]]
-2026-08-12 (水) 01:08:29 - [[Swift F.1]]
-2026-08-12 (水) 01:05:48 - [[Ki-200]]
-2026-08-12 (水) 01:00:02 - [[BM Oplot-T]]
-2026-08-12 (水) 00:53:24 - [[Ariete WAR]]
-2026-08-12 (水) 00:49:44 - [[Niedersachsen]]
-2026-08-12 (水) 00:39:32 - [[La Fayette]]
-2026-08-12 (水) 00:35:11 - [[JDS Takanami]]
-2026-08-10 (月) 09:42:35 - [[30 mm L21A1 automatic cannon (Mk.2)]]
-2026-08-10 (月) 09:21:25 - [[コメント/BTR-3E1]]
-2026-08-08 (土) 09:28:12 - [[120 mm Rh120 L/44 cannon (2A5)]]
-2026-08-08 (土) 02:17:07 - [[120 mm 10th Year Type cannon]]
-2026-08-08 (土) 02:10:37 - [[105 mm Type 5 cannon]]
-2026-08-08 (土) 02:09:25 - [[37 mm Type 1 cannon]]
-2026-08-08 (土) 02:00:06 - [[75 mm Type 3 cannon]]
-2026-08-08 (土) 01:58:06 - [[75 mm Lightweight Type I Model II cannon]]
-2026-08-08 (土) 01:57:30 - [[75 mm Type II cannon]]
-2026-08-08 (土) 01:35:29 - [[155 mm NSJ L/30 cannon]]
-2026-08-08 (土) 01:29:18 - [[155 mm M45 cannon]]
-2026-08-06 (木) 19:23:34 - [[JDS Chokai/コメント]]
-2026-08-05 (水) 08:20:32 - [[LAV-AD]]
-2026-08-03 (月) 23:30:17 - [[Type 10/コメント]]
-2026-08-03 (月) 23:19:42 - [[105 mm M68A1 cannon (CM)]]
-2026-08-03 (月) 09:48:56 - [[T-80UD]]
-2026-08-03 (月) 09:09:34 - [[T-80U-E1]]
-2026-07-27 (月) 00:48:08 - [[BTR-152D/コメント]]
-2026-07-25 (土) 10:13:50 - [[M36B2]]
-2026-07-25 (土) 10:07:10 - [[M44 (JP)]]
-2026-07-24 (金) 19:04:14 - [[RCV (P)]]
-2026-07-24 (金) 19:04:09 - [[Chi-Ri]]
-2026-07-24 (金) 18:46:11 - [[Type 24 ICV (P)]]
-2026-07-24 (金) 18:45:48 - [[Type 90 (B)]]
-2026-07-24 (金) 18:45:34 - [[BTR-3E1]]
-2026-07-24 (金) 18:45:26 - [[Type 74 (E)]]
-2026-07-24 (金) 18:45:20 - [[M60A3 TTS(TH)]]
-2026-07-24 (金) 18:45:12 - [[Stingray(TH)]]
-2026-07-24 (金) 18:45:08 - [[Type 16 (P)]]
-2026-07-24 (金) 18:45:03 - [[M163(TH)]]
-2026-07-24 (金) 18:44:56 - [[Type 75 SPH]]
-2026-07-24 (金) 18:44:51 - [[ST-A2]]
-2026-07-24 (金) 18:44:42 - [[Type 61]]
-2026-07-24 (金) 18:44:30 - [[Type 75 MLRS]]
-2026-07-24 (金) 18:44:03 - [[Heavy Tank No.6(JP)]]
-2026-07-24 (金) 18:43:54 - [[SUB-I-II]]
-2026-07-24 (金) 18:43:47 - [[M4A3 (76)W(JP)]]
-2026-07-24 (金) 18:43:36 - [[Chi-To Late]]
-2026-07-24 (金) 18:41:53 - [[M44(JP)]]
-2026-07-24 (金) 18:41:46 - [[Chi-Ha LG]]
-2026-07-24 (金) 18:41:42 - [[M24(JP)]]
-2026-07-24 (金) 18:41:37 - [[Chi-Nu]]
-2026-07-24 (金) 14:59:12 - [[Type 25 RCV (P)]]
-2026-07-24 (金) 11:28:13 - [[125 mm KBA-3 cannon]]
-2026-07-24 (金) 11:20:04 - [[120 mm TKG cannon]]
-2026-07-24 (金) 11:09:58 - [[30 mm automatic grenade launcher AG-17]]
-2026-07-24 (金) 11:09:11 - [[30 mm ZTM-1 automatic cannon]]
-2026-07-24 (金) 11:08:06 - [[130 mm Type 75]]
-2026-07-24 (金) 11:06:16 - [[Type 79 ASM]]
-2026-07-24 (金) 10:58:39 - [[R2]]
-2026-07-24 (金) 10:58:33 - [[Type 79]]
-2026-07-24 (金) 10:58:25 - [[Type 64 MAT]]
-2026-07-23 (木) 20:44:30 - [[Type 10]]
-2026-07-23 (木) 04:55:37 - [[125 mm Type 99A cannon]]
-2026-07-13 (月) 10:53:55 - [[Silver District]]
-2026-07-12 (日) 12:59:18 - [[WZ1001(E) LCT]]
-2026-07-12 (日) 12:55:50 - [[T-72B3A]]
-2026-07-12 (日) 10:31:42 - [[Meteor F Mk 4 G.41F]]
-2026-07-12 (日) 10:27:59 - [[Yak-23]]
-2026-07-12 (日) 10:23:08 - [[ZTZ99A]]
-2026-07-12 (日) 10:15:53 - [[Centauro RGO]]
-2026-07-12 (日) 10:07:14 - [[HNLMS Jacob van Heemskerck]]
-2026-07-12 (日) 10:01:14 - [[JDS Murasame]]
-2026-07-12 (日) 09:56:47 - [[USS Dewey]]
-2026-07-12 (日) 00:09:12 - [[Leopard 2A5]]
-2026-07-12 (日) 00:03:13 - [[M1A2 SEP]]
-2026-07-10 (金) 10:10:23 - [[JDS Takatsuki/コメント]]
-2026-07-08 (水) 22:33:09 - [[F-5C]]
-2026-07-08 (水) 22:22:08 - [[AlphaJet A]]
-2026-07-08 (水) 21:12:59 - [[T-2]]
-2026-07-07 (火) 05:23:24 - [[Vickers Mk.7]]
-2026-07-07 (火) 05:23:18 - [[Challenger 3 TD]]
-2026-07-04 (土) 01:26:05 - [[14.5 mm QJG02 machine gun]]
-2026-07-04 (土) 01:18:17 - [[125 mm L/54 cannon]]
-2026-07-04 (土) 00:57:47 - [[120 mm M256 cannon (“Click-Bait”)]]
-2026-06-27 (土) 20:20:23 - [[T-34 (1940)/コメント]]
-2026-06-27 (土) 20:18:59 - [[Ostwind/コメント]]
-2026-06-21 (日) 12:49:20 - [[Radkampfwagen 90]]
-2026-06-20 (土) 15:49:13 - [[125 mm 2A46M-4 cannon]]
-2026-06-16 (火) 02:08:50 - [[2S3M]]
-2026-06-15 (月) 09:33:12 - [[He 177 A-5]]
-2026-06-14 (日) 16:04:19 - [[Fw 190 A-4]]
-2026-06-13 (土) 16:24:35 - [[wtm美術部/コメント]]
-2026-06-13 (土) 11:15:30 - [[wtm美術部]]
-2026-06-10 (水) 20:34:45 - [[Sea Hawk FGA.6]]
-2026-06-10 (水) 20:32:29 - [[F9F-2]]
-2026-06-10 (水) 20:30:04 - [[Vilkas]]
-2026-06-10 (水) 20:25:48 - [[AGS]]
-2026-06-10 (水) 20:25:23 - [[Braunschweig]]
-2026-06-10 (水) 20:22:45 - [[Type 31]]
-2026-06-10 (水) 20:13:38 - [[Pr. 1134B]]
-2026-06-10 (水) 20:09:07 - [[T-72B3 “Arena”]]
-2026-06-10 (水) 19:58:01 - [[JDS Chokai]]
-2026-06-10 (水) 19:53:32 - [[Pr. 971]]
-2026-06-10 (水) 19:47:38 - [[USS Bunker Hill]]
-2026-06-08 (月) 15:54:06 - [[XF5F]]
-2026-06-08 (月) 15:53:56 - [[P-38L-1(CN)]]
-2026-06-08 (月) 15:53:52 - [[A-26G-50]]
-2026-06-08 (月) 15:53:45 - [[AD-4]]
-2026-06-08 (月) 15:53:40 - [[P-59A]]
-2026-06-08 (月) 15:53:30 - [[F-84B-26]]
-2026-06-08 (月) 15:53:24 - [[F-84G-21-RE]]
-2026-06-08 (月) 15:53:18 - [[F-80A-5]]
-2026-06-06 (土) 20:10:12 - [[PT-16/T14 mod.]]
-2026-06-06 (土) 11:27:49 - [[Hornet Mk III]]
-2026-06-06 (土) 11:26:41 - [[Shackleton MR Mk 2]]
-2026-06-04 (木) 14:16:16 - [[Seafire LF Mk III]]
-2026-06-04 (木) 14:14:11 - [[Firebrand TF Mk IV]]
-2026-06-04 (木) 12:18:17 - [[Brigand B 1]]
-2026-06-04 (木) 11:47:20 - [[Seafire F Mk XVII]]
-2026-06-03 (水) 22:32:28 - [[MBT-2000 (Senrai Meidens)]]
-2026-06-03 (水) 22:31:08 - [[Leopard 2A4M (Senrai Meidens)]]
-2026-06-03 (水) 22:29:57 - [[M1A1 HC (Senrai Meidens)]]
-2026-06-03 (水) 22:26:33 - [[MBT-2000 (Senrai Maidens)]]
-2026-06-03 (水) 22:25:18 - [[Leopard 2A4M (Senrai Maidens)]]
-2026-06-03 (水) 22:24:06 - [[M1A1 HC (Senrai Maidens)]]
-2026-06-03 (水) 21:19:19 - [[Stirling B Mk III]]
-2026-06-03 (水) 16:53:54 - [[Waffenträger/コメント]]
-2026-06-02 (火) 12:51:46 - [[Attacker FB 1]]
-2026-06-02 (火) 12:51:40 - [[Meteor F Mk 3]]
-2026-06-02 (火) 12:51:27 - [[Spitfire F Mk 24]]
-2026-06-02 (火) 12:51:19 - [[Tempest Mk V]]
-2026-06-02 (火) 12:51:11 - [[Sea Fury FB 11]]
-2026-06-02 (火) 12:51:04 - [[MB.5]]
-2026-06-02 (火) 12:50:58 - [[Spitfire F Mk 22]]
-2026-06-02 (火) 12:50:53 - [[Spitfire LF Mk.III]]
-2026-06-02 (火) 12:50:44 - [[Spitfire F Mk XVII]]
-2026-06-02 (火) 12:50:37 - [[Hornet Mk.III]]
-2026-06-02 (火) 12:50:31 - [[Lincoln B Mk II]]
-2026-06-02 (火) 12:50:06 - [[Shackleton.MR.Mk.2]]
-2026-06-02 (火) 12:49:54 - [[Whirlwind Mk I]]
-2026-06-02 (火) 12:49:46 - [[Typhoon Mk Ib/L]]
-2026-06-02 (火) 12:49:39 - [[Spitfire F Mk XIVc]]
-2026-06-02 (火) 12:49:33 - [[Spitfire F Mk XVI]]
-2026-06-02 (火) 12:45:11 - [[Mosquito FB Mk VI]]
-2026-06-02 (火) 12:45:04 - [[Mosquito B.MXVI]]
-2026-06-02 (火) 12:44:48 - [[Gladiator Mk II]]
-2026-06-02 (火) 12:44:37 - [[Wellington Mk Ic]]
-2026-06-01 (月) 17:27:16 - [[Lancaster B Mk III]]
-2026-06-01 (月) 10:02:07 - [[ECM]]
-2026-05-31 (日) 22:31:44 - [[利根]]
-2026-05-31 (日) 14:29:06 - [[Centauro I 120]]
-2026-05-31 (日) 14:27:49 - [[Ariete PSO]]
-2026-05-30 (土) 16:59:21 - [[Challenger 2 (2F)]]
-2026-05-29 (金) 02:00:01 - [[Spitfire Mk Vb/trop]]
-2026-05-27 (水) 12:09:34 - [[CV90120-T]]
-2026-05-27 (水) 12:08:21 - [[Merkava Mk.3C]]
-2026-05-27 (水) 12:06:03 - [[Merkava Mk.3B]]
-2026-05-25 (月) 07:12:10 - [[9M120-1]]
-2026-05-25 (月) 07:11:20 - [[9M120-1F]]
-2026-05-22 (金) 23:44:44 - [[Typhoon Mk Ib]]
-2026-05-22 (金) 03:01:25 - [[Hurricane Mk IIB/Trop]]
-2026-05-22 (金) 02:35:20 - [[Spitfire F Mk IX]]
-2026-05-19 (火) 22:56:54 - [[P-47N-15/コメント]]
-2026-05-19 (火) 08:41:05 - [[Rheinland(陸)]]
-2026-05-19 (火) 08:39:33 - [[American Desert(陸)]]
-2026-05-18 (月) 09:50:47 - [[Stalingrad(陸)]]
-2026-05-18 (月) 09:21:29 - [[Abandoned factory (廃工場)]]
-2026-05-18 (月) 09:12:59 - [[陸軍マップ用テンプレート]]
-2026-05-14 (木) 23:53:16 - [[Vampire F.B.5]]
-2026-05-14 (木) 23:51:51 - [[Sea Meteor F Mk 3]]
-2026-05-14 (木) 23:49:33 - [[USS Long Beach]]
-2026-05-14 (木) 23:46:00 - [[Pr. 11540]]
-2026-05-14 (木) 23:38:16 - [[Namer Tsrikhon]]
-2026-05-14 (木) 23:35:30 - [[BMPT]]
-2026-05-09 (土) 20:43:56 - [[自由掲示板/たった今WTMやってて顔真っ赤になった奴、事情説明しな。/コメント2]]
-2026-05-09 (土) 18:17:01 - [[自由掲示板/たった今WTMやってて顔真っ赤になった奴、事情説明しな。/コメント_2/コメント]]
-2026-05-09 (土) 11:11:10 - [[Halifax B Mk IIIa]]
-2026-05-09 (土) 11:10:59 - [[Fitebrand TF Mk IV]]
-2026-05-09 (土) 11:10:48 - [[Beaufighter Mk 21]]
-2026-05-09 (土) 11:10:35 - [[Tempest Mk V (Vickers P)]]
-2026-05-09 (土) 11:10:20 - [[Sea Hurricane Mk IC]]
-2026-05-09 (土) 11:09:36 - [[Spitfire Mk IIb]]
-2026-05-09 (土) 11:09:22 - [[Thunderbolt Mk.1]]